TimeEDT,TemperatureF,Dew PointF,Humidity,Sea Level PressureIn,VisibilityMPH,Wind Direction,Wind SpeedMPH,Gust SpeedMPH,PrecipitationIn,Events,Conditions,WindDirDegrees,DateUTC
12:53 AM,54.0,43.0,66,29.80,10.0,West,5.8,-,N/A,,Mostly Cloudy,280,2013-11-02 04:53:00
1:53 AM,54.0,43.0,66,29.79,10.0,Calm,Calm,-,N/A,,Overcast,0,2013-11-02 05:53:00
2:53 AM,50.0,42.1,74,29.80,10.0,Calm,Calm,-,N/A,,Clear,0,2013-11-02 06:53:00
3:53 AM,48.0,42.1,80,29.81,10.0,Calm,Calm,-,N/A,,Clear,0,2013-11-02 07:53:00
4:53 AM,46.9,42.1,83,29.82,10.0,WNW,4.6,-,N/A,,Clear,290,2013-11-02 08:53:00
5:53 AM,46.9,41.0,80,29.84,10.0,Calm,Calm,-,N/A,,Clear,0,2013-11-02 09:53:00
6:53 AM,44.1,39.9,85,29.85,10.0,Calm,Calm,-,N/A,,Clear,0,2013-11-02 10:53:00
7:53 AM,43.0,39.9,89,29.86,10.0,Calm,Calm,-,N/A,,Mostly Cloudy,0,2013-11-02 11:53:00
8:53 AM,46.0,42.1,86,29.88,10.0,Calm,Calm,-,N/A,,Overcast,0,2013-11-02 12:53:00
9:53 AM,48.0,43.0,83,29.91,10.0,West,4.6,-,N/A,,Overcast,260,2013-11-02 13:53:00
10:53 AM,51.1,42.1,71,29.92,10.0,West,5.8,-,N/A,,Overcast,280,2013-11-02 14:53:00
11:53 AM,54.0,41.0,62,29.92,10.0,Variable,6.9,-,N/A,,Overcast,0,2013-11-02 15:53:00
12:15 PM,53.6,39.2,58,29.93,10.0,WNW,9.2,-,N/A,,Mostly Cloudy,300,2013-11-02 16:15:00
12:29 PM,53.6,39.2,58,29.93,10.0,WNW,8.1,-,N/A,,Mostly Cloudy,300,2013-11-02 16:29:00
12:53 PM,55.0,39.0,55,29.93,10.0,NW,9.2,-,N/A,,Mostly Cloudy,310,2013-11-02 16:53:00
1:53 PM,57.9,36.0,44,29.91,10.0,West,16.1,-,N/A,,Mostly Cloudy,280,2013-11-02 17:53:00
2:53 PM,55.9,35.1,45,29.91,10.0,WNW,9.2,-,N/A,,Mostly Cloudy,300,2013-11-02 18:53:00
3:53 PM,59.0,36.0,42,29.90,10.0,WNW,11.5,-,N/A,,Scattered Clouds,290,2013-11-02 19:53:00
4:53 PM,55.9,34.0,44,29.92,10.0,NW,6.9,-,N/A,,Clear,310,2013-11-02 20:53:00
5:53 PM,54.0,36.0,51,29.95,10.0,NW,6.9,-,N/A,,Mostly Cloudy,310,2013-11-02 21:53:00
6:53 PM,50.0,37.0,61,29.98,10.0,West,5.8,-,N/A,,Partly Cloudy,280,2013-11-02 22:53:00
7:53 PM,50.0,39.0,66,30.02,10.0,NW,3.5,-,N/A,,Overcast,310,2013-11-02 23:53:00
8:53 PM,48.9,39.9,71,30.04,10.0,West,3.5,-,N/A,,Overcast,280,2013-11-03 00:53:00
9:53 PM,48.0,39.9,74,30.06,10.0,Calm,Calm,-,N/A,,Overcast,0,2013-11-03 01:53:00
10:53 PM,46.0,39.9,79,30.09,10.0,West,4.6,-,N/A,,Mostly Cloudy,280,2013-11-03 02:53:00
11:53 PM,46.0,39.9,79,30.11,10.0,WNW,3.5,-,N/A,,Mostly Cloudy,300,2013-11-03 03:53:00